User: anonymous   Login
Location: Unspecified
(0.0000°N, 0.0000°E)
Time: 13:46:12
(UTC+00:00)
Language:

OPTUS D2 - Orbit

View from above orbital plane
View from above orbital plane
View from above satellite
View from above satellite

Ground track
Ground track

The orbit data is extracted from the following two-line orbital elements,

1 32252U 07044A   14353.67435229 -.00000171  00000-0  00000+0 0  5796
2 32252 000.0248 295.3947 0002884 339.1614 208.4168 01.00271953 26395
Epoch (UTC): 19 December 2014 16:11:04
Eccentricity: 0.0002884
inclination: 0.0248°
perigee height: 35774 km
apogee height: 35798 km
right ascension of ascending node: 295.3947°
argument of perigee: 339.1614°
revolutions per day: 1.00271953
mean anomaly at epoch: 208.4168°
orbit number at epoch: 2639

The dashed part of the orbit path shows where the satellite is in the earth's shadow,  

DLR